Home   Weather   City of Columbus   Past weeks
Flag for USA

Past Weather in City of Columbus, Wisconsin, USA — Yesterday and Last 2 Weeks

Currently: 32 °F. Overcast. (Weather station: Dane County Regional-Truax Field, USA). See more current weather

Past Weather in City of Columbus — Graph

°F

City of Columbus Temperature Yesterday

Maximum temperature yesterday: 35 °F (at 2:08 pm)
Minimum temperature yesterday: 32 °F (at 1:53 am)
Average temperature yesterday: 33 °F

High & Low Weather Summary for the Past Weeks

 TemperatureHumidityPressure
High39 °F (Jan 13, 2:53 pm)100% (Jan 2, 2:53 am)30.48 "Hg (Jan 2, 2:53 am)
Low15 °F (Jan 5, 8:53 pm)69% (Jan 9, 1:53 pm)29.31 "Hg (Jan 14, 10:17 pm)
Average26 °F92%30.01 "Hg
* Reported Jan 1 8:01 pm — Jan 16 8:53 pm, City of Columbus. Weather by CustomWeather, © 2021

Note: Actual official high and low records may vary slightly from our data, if they occured in-between our weather recording intervals... More about our weather records

City of Columbus Weather History for the Previous 24 Hours

Scroll right to see more
 ConditionsComfort  
Time TempWeatherWind HumidityBarometerVisibility
8:53 pm
Sat, Jan 16
32 °FOvercast.5 mph85%29.71 "Hg10 mi
7:53 pm32 °FMostly cloudy.5 mph88%29.71 "Hg10 mi
7:04 pm32 °FMostly cloudy.3 mph85%29.68 "Hg10 mi
6:53 pm32 °FMostly cloudy.3 mph88%29.70 "Hg10 mi
5:53 pm32 °FOvercast.3 mph88%29.71 "Hg10 mi
4:53 pm32 °FMostly cloudy.3 mph92%29.71 "Hg10 mi
4:22 pm33 °FMostly cloudy.7 mph88%29.68 "Hg9 mi
3:53 pm33 °FMostly cloudy.7 mph85%29.70 "Hg10 mi
2:53 pm35 °FMore clouds than sun.8 mph78%29.67 "Hg10 mi
2:30 pm34 °FMore clouds than sun.6 mph82%29.64 "Hg10 mi
1:53 pm34 °FMostly cloudy.9 mph82%29.66 "Hg10 mi
12:53 pm35 °FOvercast.9 mph82%29.65 "Hg10 mi
11:53 am34 °FOvercast.8 mph85%29.65 "Hg10 mi
10:53 am35 °FOvercast.9 mph85%29.66 "Hg10 mi
10:26 am34 °FMostly cloudy.8 mph88%29.64 "Hg10 mi
10:12 am34 °FMostly cloudy.7 mph88%29.64 "Hg10 mi
9:53 am34 °FCloudy.9 mph92%29.67 "Hg10 mi
8:59 am33 °FMore clouds than sun.10 mph96%29.63 "Hg10 mi
8:53 am33 °FMore clouds than sun.12 mph96%29.66 "Hg2 mi
8:27 am33 °FLight snow. Fog.7 mph96%29.62 "Hg2 mi
8:01 am33 °FLight snow. Fog.8 mph96%29.61 "Hg2 mi
7:27 am33 °FCloudy.10 mph96%29.61 "Hg10 mi
6:53 am33 °FLight snow. Mostly cloudy.10 mph96%29.63 "Hg9 mi
6:25 am33 °FLight snow. Overcast.12 mph96%29.60 "Hg9 mi
5:53 am33 °FLight snow. Fog.9 mph96%29.61 "Hg5 mi
5:42 am33 °FOvercast.12 mph96%29.58 "Hg8 mi
5:08 am33 °FLight snow. Fog.12 mph96%29.58 "Hg5 mi
4:53 am33 °FLight snow. Fog.9 mph96%29.59 "Hg5 mi
3:53 am33 °FLight snow. Fog.10 mph96%29.59 "Hg4 mi
3:09 am33 °FLight snow. Fog.8 mph96%29.57 "Hg2 mi
2:53 am33 °FLight snow. Fog.8 mph96%29.59 "Hg3 mi
2:07 am32 °FLight snow. Ice fog.6 mph100%29.56 "Hg5 mi
1:09 am33 °FMostly cloudy.7 mph96%29.55 "Hg7 mi
12:53 am33 °FMostly cloudy.6 mph96%29.57 "Hg7 mi
12:34 am33 °FMostly cloudy.6 mph100%29.55 "Hg7 mi
11:53 pm
Fri, Jan 15
33 °FLow clouds.5 mph100%29.57 "Hg9 mi
10:53 pm32 °FLight snow. Ice fog.5 mph100%29.58 "Hg5 mi
10:43 pm32 °FLight snow. Ice fog.7 mph100%29.55 "Hg4 mi
Weather by CustomWeather, © 2021

See weather overview